Milford, UT

3:57 PM MDT on June 24, 2017 (GMT -0600)
Milford Municipal

Weather History for KMLF - March, 2014

Change the Weather History Date:

Wednesday, March 26, 2014

  Actual Average Record
Temperature  
Mean Temperature 43 °F -  
Max Temperature 53 °F 58 °F 71 °F (2007)
Min Temperature 33 °F 28 °F 21 °F (1997)
Degree Days  
Heating Degree Days 22    
Moisture  
Dew Point 30 °F    
Average Humidity 77    
Maximum Humidity 100    
Minimum Humidity 14    
Precipitation  
Precipitation 0.24 in - - ()
Sea Level Pressure  
Sea Level Pressure 29.62 in    
Wind  
Wind Speed 11 mph (WNW)    
Max Wind Speed 26 mph    
Max Gust Speed 34 mph    
Visibility 6 miles    
Events Rain , Snow    
Averages and records for this station are not official NWS values.
T = Trace of Precipitation, MM = Missing Value Source: NWS Daily Summary

Daily Weather History Graph

Daily Weather History Graph

Search for Another Location

Airport or City:

Trip Planner

Search our weather history database for the weather conditions in past years. The results will help you decide how hot, cold, wet, or windy it might be!

Date:

Astronomy

Mar. 26, 2014 Rise Set
Actual Time 7:26 AM MDT 7:49 PM MDT
Civil Twilight 6:59 AM MDT 8:16 PM MDT
Nautical Twilight 6:28 AM MDT 8:47 PM MDT
Astronomical Twilight 5:56 AM MDT 9:19 PM MDT
Moon 4:34 AM MDT (3/26) 3:35 PM MDT (3/26)
Length of Visible Light 13h 16m
Length of Day
12h 23m
Waning Crescent, 21% of the Moon is Illuminated
Mar 26
Waning Crescent
Mar 30
New
Apr 7
First Quarter
Apr 15
Full
Apr 22
Last Quarter

Hourly Weather History & Observations

Time (MDT) Temp. Windchill Dew Point Humidity Pressure Visibility Wind Dir Wind Speed Gust Speed Precip Events Conditions
12:52 AM 44.1 °F 38.6 °F 10.9 °F 26% 29.57 in 10.0 mi SSW 10.4 mph - N/A   Clear
1:52 AM 39.9 °F 33.4 °F 12.0 °F 32% 29.54 in 10.0 mi SSW 10.4 mph - N/A   Clear
2:52 AM 42.1 °F 35.2 °F 10.0 °F 27% 29.52 in 10.0 mi SSW 12.7 mph - N/A   Clear
3:52 AM 41.0 °F 33.9 °F 10.9 °F 29% 29.49 in 10.0 mi SSW 12.7 mph - N/A   Clear
4:52 AM 44.1 °F 37.4 °F 10.9 °F 26% 29.46 in 10.0 mi SW 13.8 mph - N/A   Clear
5:52 AM 45.0 °F 38.9 °F 12.0 °F 26% 29.44 in 10.0 mi SW 12.7 mph - N/A   Clear
6:52 AM 46.0 °F 40.2 °F 14.0 °F 28% 29.43 in 10.0 mi SW 12.7 mph - N/A   Clear
7:52 AM 46.0 °F 40.2 °F 17.1 °F 31% 29.46 in 10.0 mi SSW 12.7 mph - N/A   Clear
8:52 AM 48.0 °F - 23.0 °F 37% 29.48 in 10.0 mi SSW 17.3 mph 27.6 mph N/A   Scattered Clouds
9:52 AM 53.1 °F - 25.0 °F 34% 29.48 in 10.0 mi SW 26.5 mph 33.4 mph N/A   Mostly Cloudy
10:52 AM 52.0 °F - 25.0 °F 35% 29.49 in 10.0 mi SW 26.5 mph 34.5 mph N/A   Overcast
11:52 AM 51.1 °F - 25.0 °F 36% 29.50 in 10.0 mi WSW 24.2 mph 34.5 mph N/A   Overcast
12:14 PM 44.1 °F 36.8 °F 34.0 °F 68% 29.61 in 10.0 mi North 16.1 mph - 0.00 in Rain Light Rain
12:20 PM 45.0 °F 37.9 °F 35.1 °F 68% 29.62 in 10.0 mi NNW 16.1 mph - 0.00 in Rain Light Rain
12:52 PM 39.9 °F 31.4 °F 37.0 °F 89% 29.59 in 10.0 mi NNW 16.1 mph - 0.00 in Rain Light Rain
12:57 PM 39.0 °F 30.3 °F 37.0 °F 93% 29.64 in 7.0 mi NNW 16.1 mph - 0.01 in Rain Rain
1:12 PM 39.0 °F 31.0 °F 36.0 °F 89% 29.65 in 5.0 mi NNW 13.8 mph - 0.03 in Rain Rain
1:45 PM 34.0 °F 25.5 °F 33.1 °F 96% 29.67 in 1.8 mi North 11.5 mph - 0.10 in Snow Light Snow
1:52 PM 33.1 °F 24.9 °F 33.1 °F 100% 29.66 in 1.2 mi North 10.4 mph - 0.12 in Snow Light Snow
2:05 PM 33.1 °F 25.5 °F 32.0 °F 96% 29.67 in 0.8 mi NNE 9.2 mph - 0.03 in Snow Light Snow
2:20 PM 33.1 °F 28.7 °F 33.1 °F 100% 29.67 in 0.8 mi NE 4.6 mph - 0.06 in Snow Light Snow
2:31 PM 33.1 °F 28.7 °F 33.1 °F 100% 29.66 in 1.0 mi ENE 4.6 mph - 0.06 in Snow Light Snow
2:38 PM 34.0 °F 27.2 °F 33.1 °F 96% 29.64 in 1.0 mi East 8.1 mph - 0.07 in Snow Light Snow
2:46 PM 34.0 °F 31.0 °F 34.0 °F 100% 29.65 in 1.8 mi Variable 3.5 mph - 0.07 in Snow Light Snow
2:50 PM 33.8 °F - 33.8 °F 100% 29.64 in 3.0 mi Calm Calm - 0.07 in Snow Light Snow
2:52 PM 35.1 °F - 35.1 °F 100% 29.62 in 4.0 mi Calm Calm - 0.07 in Snow Light Snow
2:58 PM 36.0 °F 31.1 °F 34.0 °F 93% 29.63 in 7.0 mi SE 5.8 mph - 0.00 in   Overcast
3:17 PM 39.0 °F - 36.0 °F 89% 29.63 in 10.0 mi Calm Calm - 0.00 in   Overcast
3:47 PM 42.1 °F 38.4 °F 37.0 °F 82% 29.63 in 10.0 mi WNW 5.8 mph - 0.00 in   Overcast
3:52 PM 41.0 °F 39.0 °F 36.0 °F 82% 29.60 in 10.0 mi WNW 3.5 mph - 0.00 in   Overcast
4:52 PM 41.0 °F 36.4 °F 36.0 °F 82% 29.59 in 10.0 mi North 6.9 mph - N/A   Overcast
5:41 PM 39.9 °F 34.5 °F 37.0 °F 89% 29.66 in 9.0 mi North 8.1 mph - 0.02 in Rain Light Rain
5:52 PM 39.9 °F 35.1 °F 37.0 °F 89% 29.61 in 8.0 mi NNW 6.9 mph - 0.03 in Rain Light Rain
6:12 PM 37.9 °F 33.5 °F 35.1 °F 89% 29.67 in 4.0 mi NW 5.8 mph - 0.03 in Rain Rain
6:22 PM 37.9 °F 33.5 °F 36.0 °F 93% 29.68 in 4.0 mi WNW 5.8 mph - 0.04 in Rain Rain
6:35 PM 37.0 °F 32.4 °F 34.0 °F 89% 29.68 in 3.0 mi WNW 5.8 mph - 0.07 in Rain Rain
6:52 PM 35.1 °F 26.4 °F 33.1 °F 92% 29.65 in 2.5 mi North 12.7 mph - 0.10 in Snow Light Snow
6:56 PM 34.0 °F 26.6 °F 32.0 °F 92% 29.69 in 1.8 mi North 9.2 mph - 0.00 in Snow Light Snow
6:59 PM 33.1 °F 26.1 °F 32.0 °F 96% 29.69 in 1.2 mi North 8.1 mph - 0.01 in Snow Light Snow
7:08 PM 33.1 °F 26.1 °F 32.0 °F 96% 29.69 in 1.2 mi North 8.1 mph - 0.03 in Snow Light Snow
7:15 PM 33.1 °F 26.9 °F 33.1 °F 100% 29.70 in 1.5 mi North 6.9 mph - 0.04 in Snow Light Snow
7:19 PM 33.1 °F 27.7 °F 33.1 °F 100% 29.70 in 1.8 mi North 5.8 mph - 0.04 in Snow Light Snow
7:26 PM 33.1 °F 27.7 °F 33.1 °F 100% 29.70 in 1.2 mi North 5.8 mph - 0.05 in Snow Light Snow
7:38 PM 33.1 °F - 33.1 °F 100% 29.70 in 1.8 mi Calm Calm - 0.06 in Snow Light Snow
7:42 PM 33.1 °F - 33.1 °F 100% 29.70 in 3.0 mi Calm Calm - 0.06 in Snow Light Snow
7:48 PM 33.8 °F 27.0 °F 32.0 °F 93% 29.69 in 2.5 mi ESE 8.1 mph - 0.06 in   Overcast
7:49 PM 33.1 °F 27.7 °F 32.0 °F 96% 29.67 in 2.0 mi ESE 5.8 mph - 0.06 in   Overcast
7:52 PM 33.1 °F - 32.0 °F 96% 29.70 in 1.5 mi Calm Calm - 0.00 in   Overcast
7:57 PM 33.1 °F - 33.1 °F 100% 29.70 in 2.0 mi Calm Calm - 0.00 in   Overcast
7:59 PM 33.1 °F - 33.1 °F 100% 29.70 in 3.0 mi Calm Calm - 0.00 in   Overcast
8:15 PM 33.1 °F 24.9 °F 32.0 °F 96% 29.71 in 10.0 mi West 10.4 mph - 0.00 in   Overcast
8:26 PM 34.0 °F 26.6 °F 33.1 °F 96% 29.72 in 10.0 mi WSW 9.2 mph - 0.00 in   Overcast
8:52 PM 34.0 °F 26.6 °F 34.0 °F 100% 29.70 in 10.0 mi South 9.2 mph - 0.00 in   Overcast
8:57 PM 34.0 °F 27.2 °F 33.1 °F 96% 29.73 in 10.0 mi South 8.1 mph - N/A   Overcast
9:52 PM 34.0 °F 25.5 °F 33.1 °F 96% 29.68 in 10.0 mi South 11.5 mph - N/A   Mostly Cloudy
10:52 PM 33.1 °F 24.9 °F 32.0 °F 96% 29.69 in 10.0 mi SW 10.4 mph - N/A   Clear
11:52 PM 34.0 °F 25.5 °F 33.1 °F 96% 29.71 in 10.0 mi SW 11.5 mph - N/A   Clear